TRANSIT 16 1 02807U 67048A 10250.30161270 .00000074 00000-0 10000-3 0 4596 2 02807 89.6734 188.6434 0022376 32.0710 328.1802 13.49746406130937 TRANSIT 17 1 02965U 67092A 10249.64927721 .00000078 00000-0 10000-3 0 7267 2 02965 89.2350 88.9485 0046440 213.7385 146.0808 13.52456529117468 TRANSIT 18 1 03133U 68012A 10250.42722389 .00000076 00000-0 10000-3 0 6514 2 03133 89.9675 285.5719 0076869 109.2551 251.6932 13.50561176 92927 NNSS 19 1 04507U 70067A 10250.53477614 .00000088 00000-0 11399-3 0 3290 2 04507 89.8507 305.3246 0170833 229.9599 128.6468 13.50174866970041 NNSS O-20 1 06909U 73081A 10250.20032092 .00000117 00000-0 11262-3 0 7733 2 06909 89.8651 351.6071 0157011 210.7485 148.4407 13.69802120 40259 TRANSAT 1 10457U 77106A 10249.92035067 .00000072 00000-0 10000-3 0 800 2 10457 89.6930 234.7284 0027596 64.4642 295.9363 13.48284745616162 NOVA I 1 12458U 81044A 10250.41648988 .00000050 00000-0 10000-3 0 1196 2 12458 90.0664 119.3523 0014362 358.4013 1.7079 13.22723535414962 NOVA 3 1 15362U 84110A 10250.53971144 .00000050 00000-0 10000-3 0 1657 2 15362 89.9877 50.1389 0030333 209.0193 150.9264 13.22501671250236 OSCAR 30 1 15935U 85066A 10250.94253520 .00000051 00000-0 79839-4 0 6517 2 15935 90.0644 25.4191 0169187 324.3848 34.6097 13.35286723220456 OSCAR 24 1 15936U 85066B 10250.40424746 .00000123 00000-0 21039-3 0 870 2 15936 90.0563 22.0495 0169364 328.8908 30.2287 13.35182272222505 POLAR BEAR 1 17070U 86088A 10250.11514602 .00000054 00000-0 44541-4 0 1738 2 17070 89.5221 87.7992 0039486 6.2216 353.9449 13.74366731194027 OSCAR 27 1 18361U 87080A 10249.91279277 .00000068 00000-0 10000-3 0 6863 2 18361 90.3435 248.5921 0106024 343.6603 16.1127 13.44099376126636 OSCAR 29 1 18362U 87080B 10250.23698861 .00000067 00000-0 10000-3 0 9441 2 18362 90.3449 248.7441 0107877 354.3479 5.6435 13.43726692126438 OSCAR 23 1 19070U 88033A 10251.15912786 .00000057 00000-0 10000-3 0 8790 2 19070 90.2664 196.2004 0189188 194.8836 164.6668 13.27128217 83251 OSCAR 32 1 19071U 88033B 10249.87497510 .00000058 00000-0 10000-3 0 5383 2 19071 90.2660 196.2495 0187396 190.1921 169.5393 13.27333663 83257 NOVA 11 1 19223U 88052A 10250.03832527 .00000050 00000-0 10000-3 0 7120 2 19223 90.0068 91.4465 0028707 254.6538 105.1426 13.22432014 72705 OSCAR 25 1 19419U 88074A 10249.85406930 .00000066 00000-0 10000-3 0 9347 2 19419 89.9311 28.0390 0095415 304.3641 54.8508 13.41833122 78737 OSCAR 31 1 19420U 88074B 10250.46026933 .00000066 00000-0 10000-3 0 6087 2 19420 89.9309 27.9729 0093366 297.1122 62.0523 13.41882508 78916